Weather in Podosinovets

Russia / Kirov Oblast     60°16′40″N   47°04′08″E
temp.,
°C
wind,
m/s
gust,
m/s
humid.,
%
clouds,
%
prec.,
mm/h
press.,
hPa
HPBL,
m
2 december, thu
thu200:00−5sw3893100 0.2 985566
03:00−7sw4109390 0.3 986490
06:00−7sw41192100 0.0 987484
09:00−7sw41094100 0.4 990523
12:00−7sw41091100 0.1 991589
15:00−7sw41192100 0.3 993630
18:00−9wsw51191100 0.1 994578
21:00−10wsw41191100 0.1 996533
3 december, fri
fri300:00−11wsw41193100 0.1 997512
03:00−11wsw41193100 0.1 998481
06:00−11wsw389578 0.0 999297
09:00−16sw1110093 0.1 100110
12:00−12w129867 0.0 100344
15:00−17ese1110070 0.0 10059
18:00−19ese11100100 0.0 100610
21:00−11e2596100 0.1 1006120
4 december, sat
sat400:00−8ene3796100 0.5 1006198
03:00−7e3796100 0.9 1004199
06:00−6ene41096100 2.2 1000284
09:00−6ene51395100 5.1 997413
12:00−6ene51296100 3.3 994400
15:00−4sw21096100 5.9 994514
18:00−9w3119699 0.9 999467
21:00−13wnw259697 1.2 1002202
5 december, sun
sun500:00−15wnw2597100 0.3 1005140
03:00−15nw4894100 0.4 1008433
06:00−17nw4994100 0.1 1010504
09:00−17nnw4993100 0.1 1014471
12:00−17nw3894100 0.0 1017513
15:00−19nnw3895100 0.1 1020326
18:00−22nw279983 0.0 1023136
21:00−27nw2510016 0.0 102682
6 december, mon
mon600:00−30nw249919 0.0 102944
03:00−33nw11995 0.0 10319
06:00−34nw1110099 0.0 10339
09:00−30nw11100100 0.0 10359
12:00−20nne0110095 0.0 103644
15:00−24s0010018 0.0 10379
18:00−26ssw1110055 0.0 10389
21:00−26se1110062 0.0 10389